Regional Weather Roundup
Issued by NWS Sioux Falls, SD

Home | Current Version | Previous Version | Graphics & Text | Print | Product List | Glossary On
Versions: 1 2 3 4 5 6 7 8 9 10 11 12 13 14 15 16 17 18 19 20 21 22 23 24 25 26 27 28 29 30 31 32 33 34 35 36 37 38 39 40 41 42 43 44 45 46 47 48 49 50
000
ASUS43 KFSD 190710
RWRFSD

WEATHER ROUNDUP FOR SE SOUTH DAKOTA/SW MINNESOTA/NW IOWA
NATIONAL WEATHER SERVICE SIOUX FALLS SD
100 AM CST THU JAN 19 2017

NOTE: "FAIR" INDICATES FEW OR NO CLOUDS BELOW 12,000 FEET WITH NO
SIGNIFICANT WEATHER AND OR OBSTRUCTIONS TO VISIBILITY.


SDZ038>040-050-052>070-190800-
SOUTHEAST SOUTH DAKOTA

CITY           SKY/WX    TMP DP  RH WIND       PRES   REMARKS
BROOKINGS      CLOUDY    33  32  96 S13       29.71F WCI  24
CHAMBERLAIN    CLOUDY    35  30  81 SW7       29.64S WCI  30
HURON          CLOUDY    31  30  96 S9        29.66F WCI  23
MADISON          N/A     32  32 100 S9          N/A  WCI  24
MITCHELL       CLOUDY    32  31  96 SE8       29.70F WCI  25
SIOUX FALLS    CLEAR     37  36  96 S12       29.76F
WINNER         FAIR      36  28  73 S13       29.63F
YANKTON        CLEAR     37  34  87 S7        29.75F
$$

MNZ071-072-080-081-089-090-097-098-190800-
SOUTHWEST MINNESOTA

CITY           SKY/WX    TMP DP  RH WIND       PRES   REMARKS
FAIRMONT       CLEAR     35  33  92 S12       29.82F WCI  27
JACKSON        CLEAR     36  32  87 S14       29.80F
LUVERNE        CLEAR     34  32  93 S5        29.78F WCI  30
MARSHALL       CLEAR     38  35  89 SW21      29.72F
MONTEVIDEO     FOG       27  27 100 S6        29.74F VSB 1   WCI  20
PIPESTONE      CLEAR     37  36  93 SW14      29.74F
REDWOOD FALLS  CLOUDY    34  31  88 S8        29.76F WCI  27
TRACY          CLEAR     39  36  88 SW18G25   29.74F
WINDOM           N/A     36  34  93 SW7       29.79S
WORTHINGTON    CLEAR     38  34  85 S17       29.78S
$$

IAZ001>003-012>014-020>022-031-032-NEZ013-014-SDZ071-190800-
NORTHWEST IOWA

CITY           SKY/WX    TMP DP  RH WIND       PRES   REMARKS
CHEROKEE       CLEAR     36  35  96 S7        29.83S
DENISON        CLEAR     37  34  87 S9G16     29.84F
ESTHERVILLE    CLEAR     34  33  96 S15       29.81F WCI  24
LE MARS        CLEAR     37  34  87 S10       29.82F
ORANGE CITY    CLEAR     36  34  93 S9        29.79F
SHELDON        CLEAR     37  37 100 S13       29.78F
SIOUX CITY     CLEAR     34  32  92 E8        29.82F WCI  27
SPENCER        CLEAR     36  33  89 S9        29.82S
STORM LAKE     CLEAR     36  34  93 S13       29.83F
$$

ABBREVIATIONS USED IN REMARKS
   TC - TEMPERATURE IN CELSIUS
  WCI - WIND CHILL INDEX
   HX - HEAT INDEX
  VSB - VISIBILITY





USA.gov is the U.S. government's official web portal to all federal, state and local government web resources and services.